Bodega Bay, CA (94923)

8:09 PM PDT on August 22, 2017 (GMT -0700)
Bodega Bay | | Change Station

Elev 728 ft 38.34 °N, 123.02 °W | Updated 1 second ago

Clear
Clear
57.0 °F
Feels Like 57.0 °F
N
11.9
Wind Variable Wind from North
Gusts 12.5 mph

Today
High -- | Low -- °F
--% Chance of Precip.
Yesterday
High -- | Low -- °F
Precip. -- in
Pressure 29.95 in
Visibility 9.0 miles
Clouds Clear
Dew Point 54 °F
Humidity 88%
Rainfall 0.00 in
Snow Depth Not available.
6:33 AM 7:55 PM
New Moon, 2% visible
METAR KSTS 230253Z AUTO 15009KT 9SM CLR 18/13 A2996 RMK AO2 SLP140 T01830128 53002
Pressure 29.95 in
Visibility 9.0 miles
Clouds Clear
Dew Point 54 °F
Humidity 88%
Rainfall 0.00 in
Snow Depth Not available.
6:33 AM 7:55 PM
New Moon, 2% visible
METAR KSTS 230253Z AUTO 15009KT 9SM CLR 18/13 A2996 RMK AO2 SLP140 T01830128 53002

Get Severe Weather Alerts

Thanks for signing up!

Be on the lookout for a verification email in your inbox.

You'll start receiving the daily forecast at 6 AM.

×

10-Day Weather Forecast

Almanac

Astronomy

Aug. 22, 2017 Rise Set
Actual Time
Civil Twilight
Nautical Twilight
Astronomical Twilight
Moon
Length of Visible Light
Length of Day
Tomorrow will be .
, % of the Moon is Illuminated

Today's Extremes

State Highs State Lows

Community

WunderPhotos

Category 6

Welcome to Category 6. This is the collective home for Weather Underground's featured writeups by Dr. Jeff Masters (right), Bob Henson (left), Chris Burt, and other regular contributors.

Nearby

Air Quality

  Air Quality AQ Index Pollutant
Not available.

Snow Depth

Station Depth Elevation

Earthquake Activity

City Distance Mag. Time & Date
Minimum magnitude displayed is 2.5.

Coastal Water Temperatures

Place Temperature

Stations

Nearby Weather Stations

Station Location Temp. Windchill Dew Point Humidity Wind Precip. Elev Updated Type
                   

Watches & Warnings

There are currently no watches in effect.